sat.trackr.live / text

‹ back to catalog

STARLINK-37218

NORAD 68403 · 2026-063Z

PAYLOAD ACTIVE UNKNOWN

§ Identity

Operator
Country
US
Launch date
2026-03-26
Launch site
AFWTR
Launch vehicle
Mass (kg)
RCS (m²)

Purposes: comms

External: N2YO · Heavens-Above · Gunter

§ Orbital elements

Epoch: 2026-05-24T22:59:27.127104Z

Period
91.42 min
Inclination
97.2854°
Eccentricity
0.0000952
Mean motion
15.75189772 rev/d
Perigee alt
343.5 km
Apogee alt
344.7 km
Semi-major
6,722.2 km
B*
1.2766e-3
RAAN
288.5959°
Arg perigee
62.5994°
Mean anomaly
297.5368°
Rev number
965

§ Raw data

STARLINK-372181 68403U 26063Z   26144.95795286  .00194687  00000+0  12766-2 0  99942 68403  97.2854 288.5959 0000952  62.5994 297.5368 15.75189772  9657

JSON: /api/v1/satellites/68403 · /tle

For live sub-satellite position, see the globe view (requires WebGL).

§ Visibility from observer

Set your observer location to see the next 7 days of passes ≥ 10°. The values pass through the URL so the page stays shareable.

No JS? Fill the form by hand. The geolocation button needs JavaScript.